Regional Weather Roundup
Issued by NWS

Home | Current Version | Previous Version | Text Only | Print | Product List | Glossary Off
Versions: 1 2 3 4 5 6 7 8 9 10 11 12 13 14 15 16 17 18 19 20 21 22 23 24 25 26 27 28 29 30 31 32 33 34 35 36 37 38 39 40 41 42 43 44 45 46 47 48 49 50

000
ASUS43 KMPX 202101
RWRMN
WEATHER ROUNDUP FOR MINNESOTA
NATIONAL WEATHER SERVICE TWIN CITIES/CHANHASSEN MN
300 PM CST MON FEB 20 2017


NOTE: "FAIR" INDICATES FEW OR NO CLOUDS BELOW 12,000 FEET WITH NO
SIGNIFICANT WEATHER AND/OR OBSTRUCTIONS TO VISIBILITY. N/A MEANS
CURRENT SKY AND/OR WEATHER CONDITIONS ARE NOT AVAILABLE.

MNZ060>063-068>070-202200-
   Twin Cities Metro

CITY           SKY/WX    TMP DP  RH WIND       PRES   REMARKS
TWIN CITIES    LGT RAIN  52  49  89 S14G22    29.66F FOG
ST PAUL        LGT RAIN  50  50 100 S14       29.67F FOG
CRYSTAL        LGT RAIN  64  48  56 S12       29.65S
BLAINE         LGT RAIN  52  52 100 SE13G18   29.65F
LAKEVILLE      LGT RAIN  50  50 100 S10       29.67S
EDEN PRAIRIE   LGT RAIN  52  51  97 S10       29.64F FOG
SOUTH ST PAUL  LGT RAIN  51  50  99 SE7       29.67F
LAKE ELMO      LGT RAIN  52  50  93 S12G20    29.68F
$$
MNZ001>005-007-008-013>017-022>024-027-028-202200-
   Northwest Minnesota

CITY           SKY/WX    TMP DP  RH WIND       PRES   REMARKS
BEMIDJI        LGT RAIN  42  42 100 SE3       29.56F VSB<1/4
HALLOCK        LGT RAIN  36  34  93 NW7       29.60R
ROSEAU         LGT RAIN  41  36  81 SW7       29.55R VSB 1/4
WARROAD        DRZL/FOG  41  37  87 S6        29.55S VSB 1/2
THIEF RVR FALL LGT RAIN  35  35 100 NW10      29.59R FOG     WCI  27
CROOKSTON      MIX PCPN  36  36 100 N7        29.61R
FOSSTON        DRZL/FOG  43  41  93 W9        29.58R VSB 1/4
DETROIT LAKES  LGT RAIN  45  45 100 W3        29.59R VSB<1/4
MOORHEAD       CLOUDY    39  37  93 NW14      29.62S
PARK RAPIDS    LGT RAIN  46  44  93 SE12      29.55F VSB 1/4
MAHNOMEN       DRZL/FOG  40  39  99 NW7       29.58R VSB 1
$$
MNZ006-009>011-018-025>026-202200-
   North Central Minnesota

CITY           SKY/WX    TMP DP  RH WIND       PRES   REMARKS
BAUDETTE       LGT RAIN  41  40  96 S8        29.54F FOG
FLAG ISLAND    LGT RAIN  36  36 100 S6        29.54S VSB<1/4
INTL FALLS     HVY RAIN  44  42  93 SE8       29.58F FOG
WASKISH        LGT RAIN  45  43  93 S10G16    29.57F
BIG FORK       LGT RAIN  45  43  93 S8        29.59F
LONGVILLE      DRZL/FOG  45  43  93 SE8       29.59F VSB 3/4
GRAND RAPIDS   LGT RAIN  43  42  97 SE9       29.62F FOG
CRANE LAKE     RAIN      43  43 100 SE3       29.65F
ORR            RAIN      43  39  87 SE10      29.61F
COOK           LGT RAIN  43  43 100 SE8       29.63F
WALKER         DRIZZLE   45  44  98 CALM      29.58F
$$
MNZ012-019>021-037-202200-
   Northeast Minnesota

CITY           SKY/WX    TMP DP  RH WIND       PRES   REMARKS
DULUTH         RAIN      40  39  97 SE15      29.66F VSB 1
ELY            RAIN      41  41 100 SE8       29.68F
HIBBING        LGT RAIN  39  39 100 SE8       29.63F FOG
EVELETH        RAIN      42  41  95 E5        29.65F
DULUTH HARBOR  RAIN      36  34  93 E13       29.71F
TWO HARBORS    LGT RAIN  41  36  81 NE8       29.69F
SILVER BAY     LGT RAIN  37  37 100 NE7       29.71F
GRAND MARAIS     N/A     41  36  82 NE10      29.81F
G MARAIS ARPRT RAIN      37  34  87 E9        29.78F
$$
MNZ029>031-032-039>041-046>048-054>057-064-202200-
   West Central Minnesota

CITY           SKY/WX    TMP DP  RH WIND       PRES   REMARKS
FERGUS FALLS   LGT RAIN  43  43 100 NW21      29.63R VSB 1
WHEATON        CLOUDY    41  39  93 W17       29.65R FOG
MORRIS         LGT RAIN  52  52 100 S6        29.59R VSB<1/4
ALEXANDRIA     FOG       50  50 100 S12       29.60S VSB 1/4
ELBOW LAKE     LGT RAIN  49  49 100 S7        29.59R VSB<1/4
WADENA         LGT RAIN  46  46 100 SE9       29.56F VSB 1/2
GLENWOOD       FOG       50  50 100 S9        29.61R VSB 1/4
APPLETON       CLOUDY    54  52  94 S6        29.59F FOG
BENSON         CLOUDY    54  48  82 SW8       29.62R HAZE
ORTONVILLE     CLOUDY    54  52  94 CALM      29.60S FOG
WILLMAR        LGT RAIN  54  54 100 SE9       29.62F
$$
MNZ033>034-036-042>043-049>051-058-059-202200-
   Central Minnesota

CITY           SKY/WX    TMP DP  RH WIND       PRES   REMARKS
ST CLOUD       RAIN      48  48 100 S6        29.64R FOG
SAUK CENTRE    DRIZZLE   48  48 100 SE9       29.62S
PAYNESVILLE    LGT RAIN  50  50 100 S7        29.64R
AITKIN         MIX PCPN  48  45  87 SE10      29.61F
PINE RIVER     LGT RAIN  45  45 100 SE8       29.64F VSB<1/4
BRAINERD       LGT RAIN  47  47 100 S6        29.63R FOG
STAPLES        DRIZZLE   46  46 100 SE8       29.60S
LONG PRAIRIE   RAIN      46  46 100 E6        29.61F
LITTLE FALLS   RAIN      46  46 100 SE6       29.63S
LITCHFIELD     LGT RAIN  52  52 100 S3        29.65R VSB 1
BUFFALO        RAIN      50  48  93 S7        29.66R
MAPLE LAKE     RAIN      50  50  99 S5        29.66R
HUTCHINSON     LGT RAIN  53  53 100 SW8       29.66R
$$
MNZ037-044-045-052-053-202200-
   East Central Minnesota

CITY           SKY/WX    TMP DP  RH WIND       PRES   REMARKS
PRINCETON      RAIN      52  48  87 S7        29.64S
MORA           RAIN      41  41 100 S3        29.66F
CAMBRIDGE      RAIN      52  46  82 SE6       29.62F
RUSH CITY      RAIN      48  46  93 S10       29.65F
MOOSE LAKE     LGT RAIN  37  37 100 NE5       29.64F VSB 1/2
HINCKLEY       RAIN      46  46 100 SE6       29.65F
CLOQUET        RAIN      37  37 100 E8        29.66F
MCGREGOR       CLOUDY    45  43  93 SE5       29.64F
$$
MNZ071>073-080-081-089-090-097-098-202200-
   Southwest Minnesota

CITY           SKY/WX    TMP DP  RH WIND       PRES   REMARKS
MONTEVIDEO     CLOUDY    54  54 100 SW6       29.63R FOG
GRANITE FALLS  CLOUDY    54  53  97 S5        29.64R FOG
CANBY          CLOUDY    55  51  85 NW13      29.63R
MARSHALL       PTSUNNY   57  53  86 SW14      29.62R
REDWOOD FALLS  LGT RAIN  54  52  93 SE9       29.61F FOG
OLIVIA         LGT RAIN  54  52  94 SE8       29.60F
PIPESTONE      CLOUDY    52  46  82 W10       29.66R
WINDOM         PTSUNNY   55  54  94 S13       29.66S FOG
WORTHINGTON    CLOUDY    55  53  93 SW14      29.67S FOG
JACKSON        DRIZZLE   52  52 100 S10       29.69S
TRACY          CLOUDY    56  54  92 SW15G22   29.63R FOG
SLAYTON        CLOUDY    54  53  95 S15       29.65R FOG
$$
MNZ065>067-074>077-082>085-091>093-202200-
   South Central Minnesota

CITY           SKY/WX    TMP DP  RH WIND       PRES   REMARKS
MANKATO        RAIN      52  51  97 S14       29.68R FOG
NEW ULM        LGT RAIN  54  54 100 S6        29.65F
ST JAMES       DRIZZLE   55  54  94 S9        29.67F
FAIRMONT       CLOUDY    55  54  96 S13       29.69R
GLENCOE        RAIN      53  53 100 S9        29.65R
FARIBAULT      LGT RAIN  52  52 100 S12G21    29.69R
OWATONNA       RAIN      52  50  93 S17       29.70R
WASECA         RAIN      52  50  93 S20       29.70R
ALBERT LEA     RAIN      54  54 100 S12G18    29.71R
$$
MNZ078>079-086>088-094>096-202200-
   Southeast Minnesota

CITY           SKY/WX    TMP DP  RH WIND       PRES   REMARKS
ROCHESTER      RAIN      50  50 100 S15       29.73R FOG
RED WING       RAIN      52  48  87 S15       29.69F
WINONA         RAIN      52  50  93 SE8       29.74F
AUSTIN         RAIN      52  50  93 S9        29.72R
PRESTON        LGT RAIN  50  49  95 S18       29.74F
$$
ABBREVIATIONS USED IN REMARKS
   TC - TEMPERATURES IN CELSIUS
  WCI - WIND CHILL INDEX
   HX - HEAT INDEX
  VSB - VISIBILITY
$$




USA.gov is the U.S. government's official web portal to all federal, state and local government web resources and services.